TimePDT,TemperatureF,Dew PointF,Humidity,Sea Level PressureIn,VisibilityMPH,Wind Direction,Wind SpeedMPH,Gust SpeedMPH,PrecipitationIn,Events,Conditions,WindDirDegrees,DateUTC
12:52 AM,80.1,61.0,52,29.86,10.0,Calm,Calm,-,N/A,,Clear,0,2013-06-27 07:52:00
1:52 AM,77.0,59.0,54,29.87,10.0,Calm,Calm,-,N/A,,Clear,0,2013-06-27 08:52:00
2:52 AM,77.0,55.9,48,29.87,10.0,Calm,Calm,-,N/A,,Clear,0,2013-06-27 09:52:00
3:52 AM,72.0,57.9,61,29.87,10.0,WNW,4.6,-,N/A,,Clear,290,2013-06-27 10:52:00
4:52 AM,73.0,60.1,64,29.87,10.0,Calm,Calm,-,N/A,,Clear,0,2013-06-27 11:52:00
5:52 AM,70.0,59.0,68,29.91,10.0,Calm,Calm,-,N/A,,Clear,0,2013-06-27 12:52:00
6:52 AM,80.1,61.0,52,29.90,10.0,Calm,Calm,-,N/A,,Clear,0,2013-06-27 13:52:00
7:52 AM,89.1,61.0,39,29.92,10.0,Calm,Calm,-,N/A,,Clear,0,2013-06-27 14:52:00
8:52 AM,93.0,57.9,31,29.93,10.0,SE,6.9,-,N/A,,Clear,140,2013-06-27 15:52:00
9:52 AM,93.9,53.1,25,29.94,10.0,SE,11.5,-,N/A,,Clear,140,2013-06-27 16:52:00
10:52 AM,95.0,57.0,28,29.94,10.0,SE,11.5,-,N/A,,Clear,140,2013-06-27 17:52:00
11:52 AM,98.1,57.0,25,29.92,10.0,SE,10.4,17.3,N/A,,Clear,140,2013-06-27 18:52:00
12:52 PM,100.0,55.0,22,29.91,10.0,Variable,3.5,-,N/A,,Clear,0,2013-06-27 19:52:00
1:52 PM,104.0,55.0,20,29.88,10.0,ESE,6.9,-,N/A,,Clear,120,2013-06-27 20:52:00
2:52 PM,105.1,54.0,18,29.85,10.0,SE,8.1,-,N/A,,Clear,140,2013-06-27 21:52:00
3:52 PM,106.0,54.0,18,29.83,10.0,SSE,8.1,-,N/A,,Clear,150,2013-06-27 22:52:00
4:52 PM,107.1,53.1,17,29.81,10.0,East,5.8,-,N/A,,Clear,100,2013-06-27 23:52:00
5:52 PM,106.0,51.1,16,29.79,10.0,SE,6.9,-,N/A,,Clear,130,2013-06-28 00:52:00
6:52 PM,104.0,53.1,18,29.78,10.0,SSE,5.8,-,N/A,,Clear,150,2013-06-28 01:52:00
7:52 PM,95.0,57.9,29,29.79,10.0,Calm,Calm,-,N/A,,Clear,0,2013-06-28 02:52:00
8:52 PM,91.9,57.9,32,29.80,10.0,NNE,5.8,-,N/A,,Clear,20,2013-06-28 03:52:00
9:52 PM,93.0,57.0,30,29.82,10.0,North,8.1,-,N/A,,Clear,350,2013-06-28 04:52:00
10:52 PM,96.1,54.0,24,29.82,10.0,NNW,9.2,-,N/A,,Clear,330,2013-06-28 05:52:00
11:52 PM,93.9,54.0,26,29.81,10.0,NNW,9.2,-,N/A,,Clear,330,2013-06-28 06:52:00